Barcelona, Spain

1:52 AM CET en Enero 23, 2019 (GMT +0100)
El Prat

Tiempo Historia de LEBL - Enero, 2019

Change the Weather History Date:

Sábado, Enero 12, 2019

  Actual Average Record
Temperature  
Temperatura media 46 ° F -  
Temperatura máxima 56 ° F 54 ° F 62 ° F (1998)
Temperatura mínima 35 ° F 40 ° F 32 ° F (2003)
Degree Days  
Grados día de calefacción 20    
Moisture  
Punto de rocío 30 ° F    
Average Humidity 56    
Maximum Humidity 70    
Minimum Humidity 33    
Precipitación  
Precipitación 0.00 pul 0.05 pul - ()
Presión al nivel del mar  
Presión al nivel del mar 30.31 pul    
Viento  
Velocidad del viento 10 mph ()    
Velocidad máxima del viento 18 mph    
Max Gust Speed 34 mph    
Visibilidad 17.7 Millas    
Eventos      
Averages and records for this station are not official NWS values.
T = Trace of Precipitation, MM = Missing Value Source: Averaged Metar Reports

Daily Weather History Graph

Daily Weather History Graph

Search for Another Location

Airport or City:

Astronomía

Jan. 12, 2019 Salida Puesta
Hora real 8:16 AM CET 5:43 PM CET
Crepúsculo civil 7:45 AM CET 6:14 PM CET
Crepúsculo náutico 7:11 AM CET 6:48 PM CET
Crepúsculo astronómico 6:38 AM CET 7:21 PM CET
Luna 11:51 AM CET (1/12) 11:51 PM CET (1/12)
Horas de luz 10h 28m
Horas de luz
9h 27m
Creciente, 33% of the Moon is Illuminated
Ene 12
Creciente
Ene 14
Cuarto creciente
Ene 21
Luna llena
Ene 27
Cuarto menguante
Feb 4
Nueva

Hourly Weather History & Observations

Hora (CET) Temp. Vientos helados Punto de rocío Humedad Presión Visibilidad Wind Dir Velocidad del viento Velocidad de ráfagas Precip Eventos Condiciones
12:00 AM 38 ° F - 26 ° F 51% 30.33 pul 16 mi Norte 9.2 mph - -  
12:00 AM 37.4 ° F 30.8 ° F 24.8 ° F 60% 30.30 pul - NO 9.2 mph - N/A   Despejado
12:30 AM 37.4 ° F 31.4 ° F 24.8 ° F 60% 30.30 pul - NNO 8.1 mph - N/A   Despejado
1:00 AM 37 ° F - 26 ° F 53% 30.33 pul 16 mi Norte 10.4 mph - -   Despejado
1:00 AM 37.4 ° F 30.8 ° F 24.8 ° F 60% 30.30 pul - NNO 9.2 mph - N/A   Despejado
1:30 AM 37.4 ° F 29.8 ° F 24.8 ° F 60% 30.30 pul - NNO 11.5 mph - N/A   Despejado
2:00 AM 37 ° F - 26 ° F 53% 30.34 pul 13 mi Norte 12.7 mph - -  
2:00 AM 37.4 ° F 29.8 ° F 24.8 ° F 60% 30.33 pul - NNO 11.5 mph - N/A   Despejado
2:30 AM 35.6 ° F 27.1 ° F 24.8 ° F 65% 30.33 pul - NNO 12.7 mph - N/A   Despejado
3:00 AM 35.6 ° F 27.5 ° F 24.8 ° F 65% 30.33 pul - NNO 11.5 mph - N/A   Despejado
3:30 AM 35.6 ° F 27.5 ° F 24.8 ° F 65% 30.33 pul - NO 11.5 mph - N/A   Despejado
4:00 AM 37 ° F - 26 ° F 54% 30.34 pul 22 mi Norte 12.7 mph - -   Nubes dispersas
4:00 AM 35.6 ° F 26.2 ° F 24.8 ° F 65% 30.33 pul - NNO 15.0 mph - N/A   Despejado
4:30 AM 37.4 ° F 29.3 ° F 24.8 ° F 60% 30.33 pul - NNO 12.7 mph - N/A   Despejado
5:00 AM 37.4 ° F 28.9 ° F 24.8 ° F 60% 30.33 pul - NO 13.8 mph - N/A   Despejado
5:30 AM 35.6 ° F 26.2 ° F 24.8 ° F 65% 30.30 pul - NNO 15.0 mph - N/A   Despejado
6:00 AM 37 ° F - 27 ° F 56% 30.33 pul 19 mi Norte 13.8 mph - -  
6:00 AM 35.6 ° F 27.1 ° F 24.8 ° F 65% 30.30 pul - NNO 12.7 mph - N/A   Despejado
6:30 AM 37.4 ° F 28.9 ° F 24.8 ° F 60% 30.30 pul - NNO 13.8 mph - N/A   Despejado
7:00 AM 37 ° F - 27 ° F 56% 30.33 pul 19 mi Norte 13.8 mph - -   Nubes dispersas
7:00 AM 37.4 ° F 29.3 ° F 24.8 ° F 60% 30.30 pul - NNO 12.7 mph - N/A   Despejado
7:30 AM 35.6 ° F 27.1 ° F 26.6 ° F 70% 30.33 pul - NNO 12.7 mph - N/A   Despejado
8:00 AM 35.6 ° F 26.6 ° F 24.8 ° F 65% 30.30 pul - NNO 13.8 mph - N/A   Despejado
8:30 AM 35.6 ° F 27.1 ° F 26.6 ° F 70% 30.33 pul - NNO 12.7 mph - N/A   Despejado
9:00 AM 37.4 ° F 28.2 ° F 26.6 ° F 65% 30.33 pul - NNO 16.1 mph 34.5 mph N/A   Despejado
9:30 AM 37.4 ° F 28.2 ° F 26.6 ° F 65% 30.33 pul - NNO 16.1 mph 28.8 mph N/A   Despejado
10:00 AM 41 ° F - 28 ° F 49% 30.36 pul 18 mi Norte 15.0 mph - -   Despejado
10:00 AM 39.2 ° F 30.8 ° F 26.6 ° F 61% 30.33 pul - NO 15.0 mph - N/A   Despejado
10:30 AM 41.0 ° F 32.2 ° F 28.4 ° F 61% 30.33 pul - NNO 18.4 mph - N/A   Despejado
11:00 AM 44 ° F - 30 ° F 45% 30.35 pul 19 mi Norte 13.8 mph - -  
11:00 AM 42.8 ° F 35.8 ° F 28.4 ° F 57% 30.33 pul - NNO 13.8 mph 25.3 mph N/A   Despejado
11:30 AM 44.6 ° F 38.1 ° F 28.4 ° F 53% 30.33 pul - NNO 13.8 mph - N/A   Despejado
12:00 PM 47 ° F - 31 ° F 42% 30.34 pul 19 mi Norte 11.5 mph - -  
12:00 PM 46.4 ° F 40.7 ° F 30.2 ° F 53% 30.33 pul - NO 12.7 mph 28.8 mph N/A   Despejado
12:30 PM 48.2 ° F - 32.0 ° F 54% 30.30 pul - NO 8.1 mph 21.9 mph N/A   Despejado
1:00 PM 51 ° F - 33 ° F 38% 30.31 pul 19 mi Norte 5.8 mph - -   Despejado
1:00 PM 50.0 ° F - 32.0 ° F 50% 30.30 pul - Variable 6.9 mph 18.4 mph N/A   Despejado
1:30 PM 51.8 ° F - 32.0 ° F 47% 30.30 pul - NNO 5.8 mph - N/A   Despejado
2:00 PM 54 ° F - 34 ° F 34% 30.29 pul 19 mi NO 1.2 mph - -  
2:00 PM 51.8 ° F - 32.0 ° F 47% 30.27 pul - NO 8.1 mph - N/A   Despejado
2:30 PM 53.6 ° F - 33.8 ° F 47% 30.27 pul - ONO 5.8 mph - N/A   Despejado
3:00 PM 56 ° F - 35 ° F 34% 30.28 pul 19 mi Sin viento Sin viento - -   Despejado
3:00 PM 53.6 ° F - 33.8 ° F 47% 30.27 pul - NO 3.5 mph - N/A   Despejado
3:30 PM 53.6 ° F - 35.6 ° F 51% 30.27 pul - Variable 2.3 mph - N/A   Despejado
4:00 PM 56 ° F - 35 ° F 33% 30.28 pul 19 mi ENE 2.3 mph - -   Despejado
4:00 PM 55.4 ° F - 33.8 ° F 44% 30.27 pul - OSO 3.5 mph - N/A   Despejado
5:00 PM 55 ° F - 35 ° F 35% 30.27 pul 19 mi Norte 6.9 mph - -  
5:00 PM 53.6 ° F - 33.8 ° F 47% 30.27 pul - NNO 9.2 mph - N/A   Despejado
5:30 PM 51.8 ° F - 33.8 ° F 50% 30.27 pul - NNO 9.2 mph - N/A   Despejado
6:00 PM 51 ° F - 34 ° F 39% 30.29 pul 19 mi Norte 10.4 mph - -  
6:00 PM 50.0 ° F - 32.0 ° F 50% 30.27 pul - NNO 9.2 mph - N/A   Despejado
6:30 PM 50.0 ° F - 32.0 ° F 50% 30.30 pul - NNO 6.9 mph - N/A   Despejado
7:00 PM 48 ° F - 34 ° F 46% 30.31 pul 19 mi Norte 6.9 mph - -   Despejado
7:00 PM 48.2 ° F - 32.0 ° F 54% 30.30 pul - NNO 8.1 mph - N/A   Despejado
7:30 PM 46.4 ° F 43.5 ° F 32.0 ° F 57% 30.30 pul - NNO 5.8 mph - N/A   Despejado
8:00 PM 46 ° F - 34 ° F 52% 30.32 pul 19 mi Norte 5.8 mph - -  
8:00 PM 46.4 ° F 41.9 ° F 32.0 ° F 57% 30.30 pul - NNO 9.2 mph - N/A   Despejado
8:30 PM 46.4 ° F 41.9 ° F 33.8 ° F 62% 30.30 pul - NNO 9.2 mph - N/A   Despejado
9:00 PM 45 ° F - 34 ° F 55% 30.32 pul 15 mi NNE 3.5 mph - -  
9:00 PM 44.6 ° F 43.1 ° F 33.8 ° F 66% 30.30 pul - NNO 3.5 mph - N/A   Despejado
9:30 PM 42.8 ° F 38.6 ° F 33.8 ° F 70% 30.30 pul - NNO 6.9 mph - N/A   Despejado
10:00 PM 42 ° F - 34 ° F 64% 30.32 pul 12 mi Norte 5.8 mph - -   Despejado
10:00 PM 41.0 ° F 36.4 ° F 32.0 ° F 70% 30.30 pul - NNO 6.9 mph - N/A   Despejado
10:30 PM 42.8 ° F 37.5 ° F 33.8 ° F 70% 30.30 pul - NNO 9.2 mph - N/A   Despejado
11:00 PM 41.0 ° F 35.2 ° F 32.0 ° F 70% 30.30 pul - NNO 9.2 mph - N/A   Despejado
11:30 PM 41.0 ° F 33.9 ° F 32.0 ° F 70% 30.30 pul - NO 12.7 mph - N/A   Despejado